Time,TemperatureF,DewpointF,PressureIn,WindDirection,WindDirectionDegrees,WindSpeedMPH,WindSpeedGustMPH,Humidity,HourlyPrecipIn,Conditions,Clouds,dailyrainin,SoftwareType,DateUTC
2013-01-19 00:00:00,26.0,-99.9,-100.00,West,261,6.0,11.0,-999,0.00,,,-99.99,,2013-01-19 07:00:00,
2013-01-19 00:33:00,26.0,-99.9,-100.00,West,261,6.0,11.0,-999,0.00,,,-99.99,,2013-01-19 07:33:00,
2013-01-19 00:43:00,26.0,-99.9,-100.00,West,261,6.0,11.0,-999,0.00,,,-99.99,,2013-01-19 07:43:00,
2013-01-19 00:53:00,26.0,-99.9,-100.00,West,261,6.0,11.0,-999,0.00,,,-99.99,,2013-01-19 07:53:00,
2013-01-19 01:00:00,26.0,-99.9,-100.00,WSW,254,6.0,11.0,-999,0.00,,,-99.99,,2013-01-19 08:00:00,
2013-01-19 01:33:00,26.0,-99.9,-100.00,WSW,254,6.0,11.0,-999,0.00,,,-99.99,,2013-01-19 08:33:00,
2013-01-19 01:43:00,26.0,-99.9,-100.00,WSW,254,6.0,11.0,-999,0.00,,,-99.99,,2013-01-19 08:43:00,
2013-01-19 01:53:00,26.0,-99.9,-100.00,WSW,254,6.0,11.0,-999,0.00,,,-99.99,,2013-01-19 08:53:00,
2013-01-19 02:00:00,26.0,-99.9,-100.00,WSW,257,7.0,11.0,-999,0.00,,,-99.99,,2013-01-19 09:00:00,
2013-01-19 02:33:00,26.0,-99.9,-100.00,WSW,257,7.0,11.0,-999,0.00,,,-99.99,,2013-01-19 09:33:00,
2013-01-19 02:43:00,26.0,-99.9,-100.00,WSW,257,7.0,11.0,-999,0.00,,,-99.99,,2013-01-19 09:43:00,
2013-01-19 02:53:00,26.0,-99.9,-100.00,WSW,257,7.0,11.0,-999,0.00,,,-99.99,,2013-01-19 09:53:00,
2013-01-19 03:00:00,26.0,-99.9,-100.00,West,266,8.0,13.0,-999,0.00,,,-99.99,,2013-01-19 10:00:00,
2013-01-19 03:33:00,26.0,-99.9,-100.00,West,266,8.0,13.0,-999,0.00,,,-99.99,,2013-01-19 10:33:00,
2013-01-19 03:43:00,26.0,-99.9,-100.00,West,266,8.0,13.0,-999,0.00,,,-99.99,,2013-01-19 10:43:00,
2013-01-19 03:53:00,26.0,-99.9,-100.00,West,266,8.0,13.0,-999,0.00,,,-99.99,,2013-01-19 10:53:00,
2013-01-19 04:00:00,26.0,-99.9,-100.00,West,263,9.0,15.0,-999,0.00,,,-99.99,,2013-01-19 11:00:00,
2013-01-19 05:00:00,25.0,-99.9,-100.00,West,262,7.0,13.0,-999,0.00,,,-99.99,,2013-01-19 12:00:00,
2013-01-19 05:49:00,25.0,-99.9,-100.00,West,262,7.0,13.0,-999,0.00,,,-99.99,,2013-01-19 12:49:00,
2013-01-19 05:53:00,25.0,-99.9,-100.00,West,262,7.0,13.0,-999,0.00,,,-99.99,,2013-01-19 12:53:00,
2013-01-19 06:00:00,25.0,-99.9,-100.00,West,271,8.0,15.0,-999,0.00,,,-99.99,,2013-01-19 13:00:00,
2013-01-19 06:34:00,25.0,-99.9,-100.00,West,271,8.0,15.0,-999,0.00,,,-99.99,,2013-01-19 13:34:00,
2013-01-19 06:43:00,25.0,-99.9,-100.00,West,271,8.0,15.0,-999,0.00,,,-99.99,,2013-01-19 13:43:00,
2013-01-19 06:54:00,25.0,-99.9,-100.00,West,271,8.0,15.0,-999,0.00,,,-99.99,,2013-01-19 13:54:00,
2013-01-19 07:00:00,25.0,-99.9,-100.00,West,268,7.0,12.0,-999,0.00,,,-99.99,,2013-01-19 14:00:00,
2013-01-19 07:34:00,25.0,-99.9,-100.00,West,268,7.0,12.0,-999,0.00,,,-99.99,,2013-01-19 14:34:00,
2013-01-19 07:44:00,25.0,-99.9,-100.00,West,268,7.0,12.0,-999,0.00,,,-99.99,,2013-01-19 14:44:00,
2013-01-19 07:54:00,25.0,-99.9,-100.00,West,268,7.0,12.0,-999,0.00,,,-99.99,,2013-01-19 14:54:00,
2013-01-19 08:00:00,25.0,-99.9,-100.00,West,278,7.0,11.0,-999,0.00,,,-99.99,,2013-01-19 15:00:00,
2013-01-19 08:34:00,25.0,-99.9,-100.00,West,278,7.0,11.0,-999,0.00,,,-99.99,,2013-01-19 15:34:00,
2013-01-19 08:43:00,25.0,-99.9,-100.00,West,278,7.0,11.0,-999,0.00,,,-99.99,,2013-01-19 15:43:00,
2013-01-19 08:54:00,25.0,-99.9,-100.00,West,278,7.0,11.0,-999,0.00,,,-99.99,,2013-01-19 15:54:00,
2013-01-19 09:00:00,26.0,-99.9,-100.00,WSW,256,5.0,9.0,-999,0.00,,,-99.99,,2013-01-19 16:00:00,
2013-01-19 09:34:00,26.0,-99.9,-100.00,WSW,256,5.0,9.0,-999,0.00,,,-99.99,,2013-01-19 16:34:00,
2013-01-19 09:43:00,26.0,-99.9,-100.00,WSW,256,5.0,9.0,-999,0.00,,,-99.99,,2013-01-19 16:43:00,
2013-01-19 09:54:00,26.0,-99.9,-100.00,WSW,256,5.0,9.0,-999,0.00,,,-99.99,,2013-01-19 16:54:00,
2013-01-19 10:00:00,28.0,-99.9,-100.00,WSW,251,5.0,8.0,-999,0.00,,,-99.99,,2013-01-19 17:00:00,
2013-01-19 10:39:00,28.0,-99.9,-100.00,WSW,251,5.0,8.0,-999,0.00,,,-99.99,,2013-01-19 17:39:00,
2013-01-19 10:50:00,28.0,-99.9,-100.00,WSW,251,5.0,8.0,-999,0.00,,,-99.99,,2013-01-19 17:50:00,
2013-01-19 10:56:00,28.0,-99.9,-100.00,WSW,251,5.0,8.0,-999,0.00,,,-99.99,,2013-01-19 17:56:00,
2013-01-19 11:00:00,29.0,-99.9,-100.00,WSW,256,4.0,10.0,-999,0.00,,,-99.99,,2013-01-19 18:00:00,
2013-01-19 11:39:00,29.0,-99.9,-100.00,WSW,256,4.0,10.0,-999,0.00,,,-99.99,,2013-01-19 18:39:00,
2013-01-19 11:49:00,29.0,-99.9,-100.00,WSW,256,4.0,10.0,-999,0.00,,,-99.99,,2013-01-19 18:49:00,
2013-01-19 12:00:00,31.0,-99.9,-100.00,WSW,248,4.0,7.0,-999,0.00,,,-99.99,,2013-01-19 19:00:00,
2013-01-19 12:41:00,31.0,-99.9,-100.00,WSW,248,4.0,7.0,-999,0.00,,,-99.99,,2013-01-19 19:41:00,
2013-01-19 12:51:00,31.0,-99.9,-100.00,WSW,248,4.0,7.0,-999,0.00,,,-99.99,,2013-01-19 19:51:00,
2013-01-19 12:59:00,31.0,-99.9,-100.00,WSW,248,4.0,7.0,-999,0.00,,,-99.99,,2013-01-19 19:59:00,
2013-01-19 13:00:00,32.0,-99.9,-100.00,WSW,245,4.0,7.0,-999,0.00,,,-99.99,,2013-01-19 20:00:00,
2013-01-19 13:40:00,32.0,-99.9,-100.00,WSW,245,4.0,7.0,-999,0.00,,,-99.99,,2013-01-19 20:40:00,
2013-01-19 13:52:00,32.0,-99.9,-100.00,WSW,245,4.0,7.0,-999,0.00,,,-99.99,,2013-01-19 20:52:00,
2013-01-19 14:00:00,33.0,-99.9,-100.00,WSW,244,5.0,8.0,-999,0.00,,,-99.99,,2013-01-19 21:00:00,
2013-01-19 14:50:00,33.0,-99.9,-100.00,WSW,244,5.0,8.0,-999,0.00,,,-99.99,,2013-01-19 21:50:00,
2013-01-19 14:56:00,33.0,-99.9,-100.00,WSW,244,5.0,8.0,-999,0.00,,,-99.99,,2013-01-19 21:56:00,
2013-01-19 15:00:00,34.0,-99.9,-100.00,WSW,252,4.0,9.0,-999,0.00,,,-99.99,,2013-01-19 22:00:00,
2013-01-19 15:37:00,34.0,-99.9,-100.00,WSW,252,4.0,9.0,-999,0.00,,,-99.99,,2013-01-19 22:37:00,
2013-01-19 15:50:00,34.0,-99.9,-100.00,WSW,252,4.0,9.0,-999,0.00,,,-99.99,,2013-01-19 22:50:00,
2013-01-19 15:59:00,34.0,-99.9,-100.00,WSW,252,4.0,9.0,-999,0.00,,,-99.99,,2013-01-19 22:59:00,
2013-01-19 16:00:00,33.0,-99.9,-100.00,WSW,247,5.0,10.0,-999,0.00,,,-99.99,,2013-01-19 23:00:00,
2013-01-19 16:35:00,33.0,-99.9,-100.00,WSW,247,5.0,10.0,-999,0.00,,,-99.99,,2013-01-19 23:35:00,
2013-01-19 16:54:00,33.0,-99.9,-100.00,WSW,247,5.0,10.0,-999,0.00,,,-99.99,,2013-01-19 23:54:00,
2013-01-19 17:00:00,31.0,-99.9,-100.00,WSW,257,6.0,10.0,-999,0.00,,,-99.99,,2013-01-20 00:00:00,
2013-01-19 17:39:00,31.0,-99.9,-100.00,WSW,257,6.0,10.0,-999,0.00,,,-99.99,,2013-01-20 00:39:00,
2013-01-19 17:49:00,31.0,-99.9,-100.00,WSW,257,6.0,10.0,-999,0.00,,,-99.99,,2013-01-20 00:49:00,
2013-01-19 17:59:00,31.0,-99.9,-100.00,WSW,257,6.0,10.0,-999,0.00,,,-99.99,,2013-01-20 00:59:00,
2013-01-19 18:00:00,28.0,-99.9,-100.00,WSW,258,6.0,10.0,-999,0.00,,,-99.99,,2013-01-20 01:00:00,
2013-01-19 18:40:00,28.0,-99.9,-100.00,WSW,258,6.0,10.0,-999,0.00,,,-99.99,,2013-01-20 01:40:00,
2013-01-19 18:54:00,28.0,-99.9,-100.00,WSW,258,6.0,10.0,-999,0.00,,,-99.99,,2013-01-20 01:54:00,
2013-01-19 19:00:00,28.0,-99.9,-100.00,WSW,255,6.0,10.0,-999,0.00,,,-99.99,,2013-01-20 02:00:00,
2013-01-19 19:39:00,28.0,-99.9,-100.00,WSW,255,6.0,10.0,-999,0.00,,,-99.99,,2013-01-20 02:39:00,
2013-01-19 19:47:00,28.0,-99.9,-100.00,WSW,255,6.0,10.0,-999,0.00,,,-99.99,,2013-01-20 02:47:00,
2013-01-19 20:00:00,28.0,-99.9,-100.00,West,259,7.0,10.0,-999,0.00,,,-99.99,,2013-01-20 03:00:00,
2013-01-19 20:40:00,28.0,-99.9,-100.00,West,259,7.0,10.0,-999,0.00,,,-99.99,,2013-01-20 03:40:00,
2013-01-19 20:48:00,28.0,-99.9,-100.00,West,259,7.0,10.0,-999,0.00,,,-99.99,,2013-01-20 03:48:00,
2013-01-19 20:59:00,28.0,-99.9,-100.00,West,259,7.0,10.0,-999,0.00,,,-99.99,,2013-01-20 03:59:00,
2013-01-19 21:00:00,28.0,-99.9,-100.00,WSW,257,7.0,10.0,-999,0.00,,,-99.99,,2013-01-20 04:00:00,
2013-01-19 21:39:00,28.0,-99.9,-100.00,WSW,257,7.0,10.0,-999,0.00,,,-99.99,,2013-01-20 04:39:00,
2013-01-19 21:46:00,28.0,-99.9,-100.00,WSW,257,7.0,10.0,-999,0.00,,,-99.99,,2013-01-20 04:46:00,
2013-01-19 22:00:00,28.0,-99.9,-100.00,West,262,7.0,10.0,-999,0.00,,,-99.99,,2013-01-20 05:00:00,
2013-01-19 22:33:00,28.0,-99.9,-100.00,West,262,7.0,10.0,-999,0.00,,,-99.99,,2013-01-20 05:33:00,
2013-01-19 22:43:00,28.0,-99.9,-100.00,West,262,7.0,10.0,-999,0.00,,,-99.99,,2013-01-20 05:43:00,
2013-01-19 22:53:00,28.0,-99.9,-100.00,West,262,7.0,10.0,-999,0.00,,,-99.99,,2013-01-20 05:53:00,
2013-01-19 23:00:00,28.0,-99.9,-100.00,WSW,254,6.0,12.0,-999,0.00,,,-99.99,,2013-01-20 06:00:00,
2013-01-19 23:34:00,28.0,-99.9,-100.00,WSW,254,6.0,12.0,-999,0.00,,,-99.99,,2013-01-20 06:34:00,
2013-01-19 23:43:00,28.0,-99.9,-100.00,WSW,254,6.0,12.0,-999,0.00,,,-99.99,,2013-01-20 06:43:00,
2013-01-19 23:53:00,28.0,-99.9,-100.00,WSW,254,6.0,12.0,-999,0.00,,,-99.99,,2013-01-20 06:53:00,